CCA7368 ZBAA-ZGSZ

Flight info

Callsign CCA7368
Flight time 2h 40m
Altitude 36100
Route RUSDO9Z RUSDO W45 IPLEV/K0895S1130 B458 DADGA/K0906S1100 W37 KILUD/K0906S1160 W37 GUSIV/K0920S1130 W37 PEXID/K0917S1160 W37 OMBEB/K0919S1130 R473 NNX/K0913S1160 R473 NOLON W90 POU/K0917S1130 W7 SAREX SAREX4
Aircraft B77W/H-SDE1E2E3FGHIJ2J3J4J5M1RWXY/LB1D1

Departure

Time 2026-05-05 02:47
Airport Beijing Capital International Airport (ZBAA)

Arrival

Time 2026-05-05 05:28
Airport Shenzhen Bao'an International Airport (ZGSZ)
Time Latitude Longitude Altitude Speed Heading
2026-05-05 02:32 40.07005 116.60522 105 ft 0 kts 83°
2026-05-05 02:37 40.07005 116.60518 105 ft 2 kts 84°
2026-05-05 02:37 40.07003 116.60499 105 ft 2 kts 84°
2026-05-05 02:37 40.07002 116.60479 105 ft 2 kts 83°
2026-05-05 02:38 40.07000 116.60460 105 ft 2 kts 83°
2026-05-05 02:38 40.06998 116.60440 105 ft 2 kts 88°
2026-05-05 02:38 40.07000 116.60421 105 ft 2 kts 118°
2026-05-05 02:38 40.07009 116.60406 105 ft 2 kts 143°
2026-05-05 02:39 40.07023 116.60397 105 ft 2 kts 167°
2026-05-05 02:39 40.07029 116.60396 105 ft 1 kts 174°
2026-05-05 02:39 40.07030 116.60396 105 ft 0 kts 174°
2026-05-05 02:41 40.07021 116.60397 105 ft 3 kts 174°
2026-05-05 02:41 40.06984 116.60404 105 ft 8 kts 172°
2026-05-05 02:41 40.06921 116.60413 105 ft 10 kts 191°
2026-05-05 02:41 40.06876 116.60346 105 ft 10 kts 254°
2026-05-05 02:42 40.06866 116.60256 105 ft 10 kts 262°
2026-05-05 02:42 40.06857 116.60161 105 ft 12 kts 263°
2026-05-05 02:42 40.06827 116.60064 105 ft 11 kts 204°
2026-05-05 02:42 40.06749 116.60062 105 ft 11 kts 171°
2026-05-05 02:43 40.06677 116.60076 105 ft 10 kts 172°
2026-05-05 02:43 40.06604 116.60083 105 ft 12 kts 173°
2026-05-05 02:43 40.06506 116.60098 105 ft 15 kts 173°
2026-05-05 02:43 40.06408 116.60113 105 ft 14 kts 174°
2026-05-05 02:44 40.06317 116.60127 105 ft 13 kts 173°
2026-05-05 02:44 40.06232 116.60140 104 ft 12 kts 173°
2026-05-05 02:44 40.06139 116.60155 104 ft 15 kts 173°
2026-05-05 02:44 40.06029 116.60172 104 ft 16 kts 173°
2026-05-05 02:45 40.05922 116.60189 104 ft 15 kts 173°
2026-05-05 02:45 40.05822 116.60205 104 ft 14 kts 173°
2026-05-05 02:45 40.05745 116.60206 104 ft 10 kts 207°
2026-05-05 02:45 40.05712 116.60131 104 ft 10 kts 260°
2026-05-05 02:46 40.05707 116.60046 104 ft 8 kts 281°
2026-05-05 02:46 40.05745 116.60002 104 ft 6 kts 332°
2026-05-05 02:46 40.05785 116.59978 104 ft 1 kts 348°
2026-05-05 02:47 40.05865 116.59961 104 ft 39 kts 351°
2026-05-05 02:47 40.06442 116.59868 104 ft 125 kts 354°
2026-05-05 02:47 40.07542 116.59693 247 ft 184 kts 354°
2026-05-05 02:47 40.08786 116.59491 1246 ft 182 kts 354°
2026-05-05 02:48 40.10022 116.59311 1981 ft 188 kts 354°
2026-05-05 02:48 40.11368 116.59103 2536 ft 203 kts 354°
2026-05-05 02:48 40.12817 116.58874 3131 ft 219 kts 353°
2026-05-05 02:48 40.14375 116.58629 3756 ft 236 kts 352°
2026-05-05 02:49 40.16069 116.58361 4366 ft 254 kts 351°
2026-05-05 02:49 40.17868 116.58075 5021 ft 271 kts 350°
2026-05-05 02:49 40.19782 116.57771 5737 ft 286 kts 349°
2026-05-05 02:49 40.21755 116.57461 6686 ft 291 kts 348°
2026-05-05 02:50 40.23748 116.57124 7632 ft 293 kts 343°
2026-05-05 02:50 40.25575 116.56128 8507 ft 286 kts 320°
2026-05-05 02:50 40.27117 116.54539 9430 ft 286 kts 314°
2026-05-05 02:50 40.28605 116.52808 10351 ft 289 kts 311°
2026-05-05 02:51 40.29964 116.50824 10949 ft 302 kts 303°
2026-05-05 02:51 40.31116 116.48470 11474 ft 316 kts 294°
2026-05-05 02:51 40.31984 116.45783 12020 ft 330 kts 285°
2026-05-05 02:51 40.32499 116.42817 12593 ft 343 kts 276°
2026-05-05 02:52 40.32560 116.39653 13107 ft 358 kts 262°
2026-05-05 02:52 40.32202 116.36382 13646 ft 373 kts 262°
2026-05-05 02:52 40.31978 116.32926 14307 ft 385 kts 266°
2026-05-05 02:52 40.31866 116.29407 15081 ft 393 kts 268°
2026-05-05 02:53 40.31796 116.25842 15976 ft 397 kts 268°
2026-05-05 02:53 40.31746 116.22251 16919 ft 399 kts 269°
2026-05-05 02:53 40.31711 116.18611 17668 ft 406 kts 270°
2026-05-05 02:53 40.31684 116.14915 18438 ft 412 kts 270°
2026-05-05 02:54 40.31662 116.11189 19356 ft 414 kts 270°
2026-05-05 02:54 40.31448 116.07430 20263 ft 416 kts 262°
2026-05-05 02:54 40.30802 116.03741 21034 ft 422 kts 254°
2026-05-05 02:54 40.29715 116.00171 21766 ft 429 kts 246°
2026-05-05 02:55 40.28185 115.96814 22501 ft 436 kts 237°
2026-05-05 02:55 40.26237 115.93766 23185 ft 445 kts 229°
2026-05-05 02:55 40.23886 115.91115 23842 ft 454 kts 219°
2026-05-05 02:55 40.21178 115.88951 24487 ft 462 kts 212°
2026-05-05 02:56 40.18292 115.87024 25103 ft 467 kts 211°
2026-05-05 02:56 40.15391 115.85105 25715 ft 471 kts 211°
2026-05-05 02:56 40.12470 115.83163 26300 ft 476 kts 211°
2026-05-05 02:56 40.09523 115.81196 26889 ft 480 kts 211°
2026-05-05 02:57 40.06555 115.79209 27465 ft 484 kts 211°
2026-05-05 02:57 40.03555 115.77197 28055 ft 488 kts 211°
2026-05-05 02:57 40.00538 115.75171 28643 ft 492 kts 211°
2026-05-05 02:57 39.97474 115.73114 29257 ft 495 kts 211°
2026-05-05 02:58 39.94430 115.71071 30028 ft 495 kts 211°
2026-05-05 02:58 39.91390 115.69033 30949 ft 490 kts 211°
2026-05-05 02:58 39.88434 115.66906 31836 ft 483 kts 217°
2026-05-05 02:58 39.85767 115.64313 32634 ft 474 kts 225°
2026-05-05 02:59 39.83460 115.61301 33337 ft 466 kts 233°
2026-05-05 02:59 39.81530 115.57931 33939 ft 461 kts 241°
2026-05-05 02:59 39.79943 115.54282 34448 ft 459 kts 245°
2026-05-05 02:59 39.78461 115.50626 34899 ft 458 kts 246°
2026-05-05 03:00 39.76979 115.46972 35350 ft 457 kts 246°
2026-05-05 03:00 39.75502 115.43330 35755 ft 457 kts 246°
2026-05-05 03:00 39.74058 115.39662 35920 ft 460 kts 247°
2026-05-05 03:01 39.71172 115.32322 35954 ft 456 kts 246°
2026-05-05 03:01 39.68278 115.24999 35958 ft 457 kts 246°
2026-05-05 03:02 39.65378 115.17692 35955 ft 457 kts 246°
2026-05-05 03:02 39.62475 115.10404 35968 ft 455 kts 246°
2026-05-05 03:03 39.59566 115.03120 35993 ft 456 kts 246°
2026-05-05 03:03 39.56661 114.95868 36001 ft 455 kts 246°
2026-05-05 03:04 39.53741 114.88594 36003 ft 457 kts 246°
2026-05-05 03:04 39.50821 114.81341 36019 ft 457 kts 246°
2026-05-05 03:05 39.47886 114.74065 36016 ft 456 kts 246°
2026-05-05 03:05 39.44948 114.66801 36019 ft 457 kts 247°
2026-05-05 03:06 39.42002 114.59533 36015 ft 459 kts 247°
2026-05-05 03:06 39.39033 114.52228 36016 ft 458 kts 247°
2026-05-05 03:07 39.35637 114.45257 36002 ft 466 kts 235°
2026-05-05 03:07 39.30761 114.39619 35991 ft 480 kts 218°
2026-05-05 03:08 39.24647 114.35971 35984 ft 494 kts 201°
2026-05-05 03:08 39.17728 114.34832 35991 ft 508 kts 181°
2026-05-05 03:09 39.10764 114.36495 35981 ft 516 kts 164°
2026-05-05 03:09 39.03952 114.39284 35979 ft 515 kts 166°
2026-05-05 03:10 38.97017 114.41668 35971 ft 513 kts 168°
2026-05-05 03:10 38.90070 114.43778 35956 ft 515 kts 170°
2026-05-05 03:11 38.83095 114.45733 35930 ft 514 kts 171°
2026-05-05 03:11 38.76098 114.47603 35907 ft 513 kts 171°
2026-05-05 03:12 38.69101 114.49437 35882 ft 514 kts 171°
2026-05-05 03:12 38.62104 114.51241 35865 ft 513 kts 171°
2026-05-05 03:13 38.55105 114.53033 35854 ft 515 kts 171°
2026-05-05 03:13 38.48069 114.54834 35846 ft 514 kts 171°
2026-05-05 03:14 38.41057 114.56534 35850 ft 514 kts 172°
2026-05-05 03:14 38.34029 114.58098 35845 ft 514 kts 172°
2026-05-05 03:15 38.26985 114.59667 35844 ft 515 kts 172°
2026-05-05 03:15 38.19924 114.61241 35849 ft 515 kts 172°
2026-05-05 03:16 38.12883 114.62810 35854 ft 515 kts 172°
2026-05-05 03:16 38.05839 114.64378 35857 ft 514 kts 172°
2026-05-05 03:17 37.98750 114.65953 35849 ft 515 kts 173°
2026-05-05 03:17 37.91683 114.67521 35847 ft 515 kts 173°
2026-05-05 03:18 37.84609 114.69088 35840 ft 516 kts 173°
2026-05-05 03:18 37.77543 114.70650 35844 ft 515 kts 173°
2026-05-05 03:19 37.66916 114.72993 35845 ft 516 kts 172°
2026-05-05 03:19 37.59846 114.74548 35842 ft 516 kts 172°
2026-05-05 03:20 37.52782 114.76099 35847 ft 516 kts 172°
2026-05-05 03:20 37.45700 114.77647 35855 ft 515 kts 172°
2026-05-05 03:21 37.38656 114.79178 35856 ft 516 kts 172°
2026-05-05 03:21 37.31592 114.80711 35869 ft 516 kts 172°
2026-05-05 03:22 37.24489 114.82289 35864 ft 517 kts 171°
2026-05-05 03:22 37.17442 114.83939 35854 ft 516 kts 171°
2026-05-05 03:23 37.10391 114.85583 35862 ft 517 kts 171°
2026-05-05 03:23 37.03336 114.87223 35861 ft 516 kts 171°
2026-05-05 03:24 36.96239 114.88868 35869 ft 515 kts 171°
2026-05-05 03:24 36.89150 114.90507 35872 ft 515 kts 171°
2026-05-05 03:25 36.82108 114.92131 35870 ft 517 kts 171°
2026-05-05 03:25 36.75016 114.93763 35878 ft 516 kts 171°
2026-05-05 03:26 36.67947 114.95388 35876 ft 516 kts 171°
2026-05-05 03:26 36.60916 114.97000 35882 ft 515 kts 171°
2026-05-05 03:27 36.53883 114.98610 35891 ft 515 kts 171°
2026-05-05 03:27 36.46813 115.00225 35895 ft 516 kts 171°
2026-05-05 03:28 36.39766 115.01832 35893 ft 516 kts 171°
2026-05-05 03:28 36.32674 115.02440 35889 ft 512 kts 186°
2026-05-05 03:29 36.25554 115.01749 35901 ft 511 kts 187°
2026-05-05 03:29 36.18453 115.01021 35902 ft 510 kts 187°
2026-05-05 03:30 36.11364 115.00295 35921 ft 511 kts 187°
2026-05-05 03:30 36.04283 114.99572 35930 ft 512 kts 187°
2026-05-05 03:31 35.97176 114.98849 35923 ft 512 kts 187°
2026-05-05 03:31 35.90096 114.98129 35915 ft 511 kts 187°
2026-05-05 03:32 35.82992 114.97408 35919 ft 513 kts 187°
2026-05-05 03:32 35.75863 114.96686 35924 ft 512 kts 187°
2026-05-05 03:33 35.68749 114.95967 35926 ft 513 kts 187°
2026-05-05 03:33 35.61650 114.95250 35924 ft 512 kts 187°
2026-05-05 03:34 35.54545 114.94535 35927 ft 512 kts 187°
2026-05-05 03:34 35.47428 114.93819 35932 ft 511 kts 187°
2026-05-05 03:35 35.40324 114.93106 35939 ft 514 kts 187°
2026-05-05 03:35 35.33230 114.92395 35944 ft 511 kts 187°
2026-05-05 03:36 35.26089 114.91681 35946 ft 513 kts 187°
2026-05-05 03:36 35.18983 114.90971 35953 ft 513 kts 187°
2026-05-05 03:37 35.11868 114.90262 35955 ft 513 kts 187°
2026-05-05 03:37 35.04774 114.89556 35951 ft 514 kts 187°
2026-05-05 03:38 34.97642 114.88848 35955 ft 513 kts 187°
2026-05-05 03:38 34.90538 114.88144 35969 ft 512 kts 187°
2026-05-05 03:39 34.83437 114.87441 35966 ft 513 kts 187°
2026-05-05 03:39 34.76318 114.86737 35971 ft 512 kts 187°
2026-05-05 03:40 34.69207 114.86036 35954 ft 512 kts 187°
2026-05-05 03:40 34.62109 114.85337 35957 ft 512 kts 187°
2026-05-05 03:41 34.55011 114.84639 35951 ft 513 kts 187°
2026-05-05 03:41 34.47893 114.83941 35979 ft 511 kts 187°
2026-05-05 03:42 34.40799 114.83246 35971 ft 512 kts 187°
2026-05-05 03:42 34.33700 114.82551 35972 ft 512 kts 187°
2026-05-05 03:43 34.26588 114.81857 35974 ft 511 kts 187°
2026-05-05 03:43 34.19504 114.81167 35964 ft 512 kts 187°
2026-05-05 03:44 34.12429 114.80482 35987 ft 510 kts 187°
2026-05-05 03:44 34.05368 114.79803 35983 ft 510 kts 187°
2026-05-05 03:45 33.98248 114.79119 35980 ft 511 kts 187°
2026-05-05 03:45 33.91167 114.78440 35978 ft 511 kts 187°
2026-05-05 03:46 33.84064 114.77760 35978 ft 511 kts 187°
2026-05-05 03:46 33.76967 114.77054 35970 ft 510 kts 187°
2026-05-05 03:47 33.69892 114.76345 35977 ft 510 kts 187°
2026-05-05 03:47 33.62834 114.75688 35982 ft 509 kts 187°
2026-05-05 03:48 33.55759 114.75015 35972 ft 510 kts 188°
2026-05-05 03:48 33.48679 114.74280 35971 ft 508 kts 188°
2026-05-05 03:49 33.41613 114.73582 35985 ft 510 kts 187°
2026-05-05 03:49 33.34566 114.72902 35995 ft 509 kts 187°
2026-05-05 03:50 33.27478 114.72219 35990 ft 509 kts 187°
2026-05-05 03:50 33.20445 114.71542 35998 ft 509 kts 187°
2026-05-05 03:51 33.13389 114.70848 35995 ft 508 kts 188°
2026-05-05 03:51 33.06367 114.70154 35987 ft 507 kts 188°
2026-05-05 03:52 32.99300 114.69457 35997 ft 509 kts 188°
2026-05-05 03:52 32.92231 114.68761 35986 ft 509 kts 188°
2026-05-05 03:53 32.85181 114.68075 35994 ft 509 kts 188°
2026-05-05 03:53 32.78102 114.67408 35988 ft 508 kts 188°
2026-05-05 03:54 32.71055 114.66744 35992 ft 508 kts 188°
2026-05-05 03:54 32.64022 114.66081 35987 ft 507 kts 188°
2026-05-05 03:55 32.56983 114.65419 35988 ft 509 kts 188°
2026-05-05 03:55 32.49914 114.64755 35998 ft 508 kts 188°
2026-05-05 03:56 32.42884 114.64096 35996 ft 508 kts 188°
2026-05-05 03:56 32.35863 114.63434 36009 ft 508 kts 188°
2026-05-05 03:57 32.28793 114.62743 36000 ft 507 kts 188°
2026-05-05 03:57 32.21778 114.62060 36009 ft 505 kts 188°
2026-05-05 03:58 32.14755 114.61376 36011 ft 507 kts 188°
2026-05-05 03:58 32.07734 114.60695 36181 ft 506 kts 188°
2026-05-05 03:59 32.04184 114.60351 36038 ft 504 kts 188°
2026-05-05 03:59 32.00698 114.60014 36019 ft 502 kts 188°
2026-05-05 03:59 31.93697 114.59336 36019 ft 505 kts 188°
2026-05-05 04:00 31.86710 114.58662 36015 ft 503 kts 189°
2026-05-05 04:00 31.79685 114.57984 36021 ft 505 kts 189°
2026-05-05 04:01 31.72691 114.57311 36010 ft 504 kts 189°
2026-05-05 04:01 31.65697 114.56639 36018 ft 505 kts 189°
2026-05-05 04:02 31.58725 114.55971 36028 ft 503 kts 189°
2026-05-05 04:02 31.51714 114.55300 36032 ft 505 kts 189°
2026-05-05 04:03 31.44736 114.54635 36027 ft 503 kts 189°
2026-05-05 04:03 31.37746 114.53969 36024 ft 503 kts 189°
2026-05-05 04:04 31.30750 114.53303 36029 ft 503 kts 189°
2026-05-05 04:04 31.23904 114.52035 36027 ft 494 kts 202°
2026-05-05 04:05 31.17659 114.48934 36032 ft 487 kts 211°
2026-05-05 04:05 31.11549 114.45542 36025 ft 488 kts 211°
2026-05-05 04:06 31.05415 114.42142 36029 ft 486 kts 211°
2026-05-05 04:06 30.99306 114.38761 36031 ft 488 kts 211°
2026-05-05 04:07 30.93178 114.35376 36031 ft 485 kts 211°
2026-05-05 04:07 30.86978 114.32074 36043 ft 488 kts 209°
2026-05-05 04:08 30.80788 114.28845 36036 ft 486 kts 209°
2026-05-05 04:08 30.74640 114.25521 36032 ft 489 kts 210°
2026-05-05 04:09 30.68496 114.22179 36024 ft 485 kts 210°
2026-05-05 04:09 30.62370 114.18852 36036 ft 487 kts 210°
2026-05-05 04:10 30.56259 114.15541 36029 ft 485 kts 210°
2026-05-05 04:10 30.50144 114.12233 36031 ft 486 kts 210°
2026-05-05 04:11 30.43996 114.08914 36020 ft 485 kts 211°
2026-05-05 04:11 30.37855 114.05602 36013 ft 485 kts 211°
2026-05-05 04:12 30.31750 114.02315 36018 ft 484 kts 211°
2026-05-05 04:12 30.25622 113.99020 36018 ft 484 kts 211°
2026-05-05 04:13 30.19515 113.95745 36025 ft 485 kts 211°
2026-05-05 04:13 30.13397 113.92472 36017 ft 484 kts 211°
2026-05-05 04:14 30.07291 113.89209 36019 ft 483 kts 211°
2026-05-05 04:14 30.01167 113.85941 36026 ft 485 kts 211°
2026-05-05 04:15 29.95043 113.82678 35887 ft 483 kts 211°
2026-05-05 04:15 29.91994 113.81054 36160 ft 486 kts 211°
2026-05-05 04:15 29.88863 113.79552 35948 ft 488 kts 204°
2026-05-05 04:16 29.82090 113.78141 36058 ft 504 kts 190°
2026-05-05 04:16 29.75113 113.77634 36049 ft 501 kts 189°
2026-05-05 04:17 29.68140 113.77147 36044 ft 503 kts 189°
2026-05-05 04:17 29.61175 113.76664 36029 ft 501 kts 190°
2026-05-05 04:18 29.54165 113.76176 36024 ft 502 kts 190°
2026-05-05 04:18 29.47168 113.75690 36066 ft 503 kts 190°
2026-05-05 04:19 29.40196 113.75209 36107 ft 499 kts 190°
2026-05-05 04:19 29.33199 113.74724 36082 ft 500 kts 190°
2026-05-05 04:20 29.26248 113.74243 36068 ft 502 kts 190°
2026-05-05 04:20 29.19255 113.73999 36068 ft 504 kts 185°
2026-05-05 04:21 29.12216 113.74276 36071 ft 506 kts 185°
2026-05-05 04:21 29.05169 113.74530 36052 ft 505 kts 185°
2026-05-05 04:22 28.98156 113.74762 36064 ft 504 kts 186°
2026-05-05 04:22 28.91134 113.74979 36071 ft 505 kts 186°
2026-05-05 04:23 28.84078 113.75192 36069 ft 506 kts 186°
2026-05-05 04:23 28.77070 113.75400 36078 ft 504 kts 186°
2026-05-05 04:24 28.70104 113.75249 36090 ft 499 kts 191°
2026-05-05 04:25 28.59722 113.74476 36097 ft 500 kts 191°
2026-05-05 04:25 28.52771 113.73961 36098 ft 499 kts 191°
2026-05-05 04:26 28.45844 113.73451 36105 ft 499 kts 191°
2026-05-05 04:26 28.38912 113.72943 36095 ft 498 kts 191°
2026-05-05 04:27 28.31963 113.72434 36084 ft 498 kts 191°
2026-05-05 04:27 28.25043 113.71934 36067 ft 497 kts 191°
2026-05-05 04:28 28.18120 113.71428 36059 ft 500 kts 191°
2026-05-05 04:28 28.11173 113.70914 36060 ft 498 kts 192°
2026-05-05 04:29 28.04270 113.70305 36067 ft 497 kts 192°
2026-05-05 04:29 27.97367 113.69683 36068 ft 496 kts 192°
2026-05-05 04:30 27.90471 113.69061 36069 ft 498 kts 192°
2026-05-05 04:30 27.83525 113.68439 36066 ft 497 kts 192°
2026-05-05 04:31 27.76611 113.67821 36066 ft 498 kts 192°
2026-05-05 04:31 27.69724 113.67208 36072 ft 496 kts 192°
2026-05-05 04:32 27.62805 113.66605 36058 ft 499 kts 190°
2026-05-05 04:32 27.55850 113.66454 36074 ft 499 kts 188°
2026-05-05 04:33 27.48870 113.66335 36070 ft 500 kts 189°
2026-05-05 04:33 27.41926 113.66202 36074 ft 497 kts 189°
2026-05-05 04:34 27.34965 113.66058 36075 ft 499 kts 189°
2026-05-05 04:34 27.28000 113.65910 36083 ft 498 kts 189°
2026-05-05 04:35 27.21094 113.65764 36089 ft 497 kts 188°
2026-05-05 04:35 27.17585 113.66003 36083 ft 509 kts 180°
2026-05-05 04:35 27.14082 113.66809 36091 ft 511 kts 173°
2026-05-05 04:36 27.07145 113.68856 36096 ft 518 kts 173°
2026-05-05 04:36 27.00199 113.70922 36090 ft 515 kts 173°
2026-05-05 04:37 26.93281 113.72969 36101 ft 515 kts 173°
2026-05-05 04:37 26.86298 113.75029 36114 ft 513 kts 173°
2026-05-05 04:38 26.79367 113.77069 36134 ft 515 kts 173°
2026-05-05 04:38 26.72466 113.79108 36141 ft 516 kts 172°
2026-05-05 04:39 26.65529 113.81287 36139 ft 514 kts 172°
2026-05-05 04:39 26.58652 113.83450 36146 ft 516 kts 172°
2026-05-05 04:40 26.51742 113.85616 36148 ft 514 kts 172°
2026-05-05 04:40 26.44854 113.87686 36165 ft 511 kts 174°
2026-05-05 04:41 26.37950 113.89671 36187 ft 513 kts 173°
2026-05-05 04:41 26.31029 113.91664 36197 ft 512 kts 173°
2026-05-05 04:42 26.24115 113.93656 36220 ft 514 kts 173°
2026-05-05 04:42 26.17180 113.95655 36229 ft 511 kts 174°
2026-05-05 04:43 26.10242 113.97651 36236 ft 512 kts 174°
2026-05-05 04:43 26.03355 113.99631 36236 ft 513 kts 174°
2026-05-05 04:44 25.96468 114.01652 36231 ft 509 kts 173°
2026-05-05 04:44 25.89561 114.03708 36211 ft 513 kts 173°
2026-05-05 04:45 25.82639 114.05766 36184 ft 514 kts 173°
2026-05-05 04:45 25.75760 114.07809 36164 ft 511 kts 173°
2026-05-05 04:46 25.68855 114.09855 36154 ft 511 kts 173°
2026-05-05 04:46 25.61959 114.11895 36160 ft 511 kts 173°
2026-05-05 04:47 25.55076 114.13928 36156 ft 512 kts 173°
2026-05-05 04:47 25.48234 114.15949 36158 ft 510 kts 173°
2026-05-05 04:48 25.41333 114.17982 36151 ft 509 kts 173°
2026-05-05 04:48 25.34460 114.20005 36145 ft 510 kts 173°
2026-05-05 04:49 25.27582 114.22027 36146 ft 511 kts 173°
2026-05-05 04:49 25.20676 114.24056 36137 ft 509 kts 173°
2026-05-05 04:50 25.13815 114.26036 36125 ft 506 kts 176°
2026-05-05 04:50 25.10365 114.26569 36123 ft 495 kts 185°
2026-05-05 04:50 25.06967 114.26534 36123 ft 483 kts 194°
2026-05-05 04:51 25.00410 114.25315 36117 ft 478 kts 200°
2026-05-05 04:51 24.93902 114.23916 36113 ft 473 kts 200°
2026-05-05 04:52 24.87393 114.22505 36121 ft 477 kts 200°
2026-05-05 04:52 24.80876 114.21093 36129 ft 476 kts 200°
2026-05-05 04:53 24.74344 114.19677 36139 ft 474 kts 200°
2026-05-05 04:53 24.67862 114.18272 36139 ft 476 kts 200°
2026-05-05 04:54 24.61335 114.16857 36136 ft 477 kts 199°
2026-05-05 04:54 24.54837 114.15452 36130 ft 475 kts 199°
2026-05-05 04:55 24.48299 114.14038 36132 ft 475 kts 199°
2026-05-05 04:55 24.41795 114.12633 36133 ft 476 kts 199°
2026-05-05 04:56 24.35397 114.10925 36135 ft 465 kts 208°
2026-05-05 04:56 24.29728 114.07708 36129 ft 453 kts 218°
2026-05-05 04:57 24.24368 114.04076 36125 ft 452 kts 219°
2026-05-05 04:57 24.19059 114.00367 36127 ft 452 kts 220°
2026-05-05 04:58 24.13741 113.96666 36143 ft 453 kts 219°
2026-05-05 04:58 24.08712 113.92569 36149 ft 445 kts 228°
2026-05-05 04:59 24.04102 113.88028 36150 ft 445 kts 228°
2026-05-05 04:59 23.99516 113.83510 36144 ft 445 kts 228°
2026-05-05 05:00 23.94907 113.78979 36136 ft 445 kts 228°
2026-05-05 05:00 23.90308 113.74463 36125 ft 446 kts 228°
2026-05-05 05:01 23.85684 113.69929 36119 ft 446 kts 228°
2026-05-05 05:01 23.81067 113.65407 36123 ft 447 kts 228°
2026-05-05 05:02 23.76411 113.60850 36116 ft 446 kts 228°
2026-05-05 05:02 23.71787 113.56330 36105 ft 447 kts 228°
2026-05-05 05:03 23.67156 113.51809 36099 ft 448 kts 228°
2026-05-05 05:03 23.62524 113.47294 35868 ft 436 kts 228°
2026-05-05 05:03 23.60286 113.45115 34760 ft 435 kts 229°
2026-05-05 05:04 23.58036 113.42919 33091 ft 444 kts 229°
2026-05-05 05:04 23.55709 113.40706 31217 ft 459 kts 224°
2026-05-05 05:04 23.53056 113.38754 29601 ft 470 kts 216°
2026-05-05 05:04 23.50106 113.37255 28525 ft 469 kts 207°
2026-05-05 05:05 23.47105 113.36085 28113 ft 447 kts 207°
2026-05-05 05:05 23.44217 113.34987 27982 ft 430 kts 207°
2026-05-05 05:05 23.41420 113.33909 27722 ft 452 kts 206°
2026-05-05 05:05 23.38369 113.32738 27006 ft 457 kts 206°
2026-05-05 05:06 23.35381 113.31601 26344 ft 454 kts 206°
2026-05-05 05:06 23.32407 113.30471 25737 ft 449 kts 206°
2026-05-05 05:06 23.29480 113.29360 25155 ft 444 kts 206°
2026-05-05 05:06 23.26577 113.28258 24568 ft 439 kts 206°
2026-05-05 05:07 23.23695 113.27164 23975 ft 434 kts 206°
2026-05-05 05:07 23.20862 113.26089 23395 ft 429 kts 205°
2026-05-05 05:07 23.18067 113.25029 22825 ft 424 kts 205°
2026-05-05 05:07 23.15297 113.23981 22236 ft 421 kts 204°
2026-05-05 05:08 23.12442 113.23231 21674 ft 424 kts 194°
2026-05-05 05:08 23.09490 113.23041 21068 ft 429 kts 184°
2026-05-05 05:08 23.06512 113.23415 20431 ft 435 kts 174°
2026-05-05 05:08 23.03574 113.24369 19786 ft 439 kts 163°
2026-05-05 05:09 23.00833 113.25849 19103 ft 445 kts 153°
2026-05-05 05:09 22.98314 113.27859 18387 ft 450 kts 142°
2026-05-05 05:09 22.96166 113.30307 17712 ft 452 kts 131°
2026-05-05 05:09 22.94436 113.33144 17047 ft 453 kts 121°
2026-05-05 05:10 22.93079 113.36200 16393 ft 449 kts 120°
2026-05-05 05:10 22.91444 113.39040 15730 ft 442 kts 130°
2026-05-05 05:10 22.89413 113.41510 15037 ft 435 kts 140°
2026-05-05 05:10 22.87076 113.43521 14337 ft 427 kts 150°
2026-05-05 05:11 22.84503 113.45032 13644 ft 419 kts 160°
2026-05-05 05:11 22.81781 113.46024 13001 ft 409 kts 171°
2026-05-05 05:11 22.79023 113.46495 12427 ft 398 kts 179°
2026-05-05 05:11 22.76277 113.46617 11716 ft 394 kts 182°
2026-05-05 05:12 22.73564 113.46706 11420 ft 381 kts 178°
2026-05-05 05:12 22.70998 113.47219 11189 ft 372 kts 167°
2026-05-05 05:12 22.68627 113.48276 10722 ft 371 kts 154°
2026-05-05 05:12 22.66538 113.49905 10249 ft 370 kts 141°
2026-05-05 05:13 22.64724 113.51797 10115 ft 356 kts 134°
2026-05-05 05:13 22.63354 113.53956 10007 ft 346 kts 118°
2026-05-05 05:13 22.62629 113.56426 9590 ft 346 kts 99°
2026-05-05 05:13 22.62679 113.58981 9538 ft 333 kts 79°
2026-05-05 05:14 22.63401 113.61283 9506 ft 317 kts 62°
2026-05-05 05:14 22.64638 113.63175 9457 ft 303 kts 44°
2026-05-05 05:14 22.66328 113.64455 9151 ft 295 kts 19°
2026-05-05 05:14 22.68295 113.64904 8789 ft 287 kts 355°
2026-05-05 05:15 22.70210 113.64507 8448 ft 277 kts 333°
2026-05-05 05:15 22.71949 113.63600 7893 ft 284 kts 328°
2026-05-05 05:15 22.73746 113.62589 7254 ft 293 kts 329°
2026-05-05 05:15 22.75520 113.61592 7197 ft 280 kts 329°
2026-05-05 05:16 22.77207 113.60643 7118 ft 269 kts 329°
2026-05-05 05:16 22.78858 113.59713 6834 ft 267 kts 328°
2026-05-05 05:16 22.80568 113.58922 6463 ft 272 kts 345°
2026-05-05 05:16 22.82451 113.58965 5983 ft 274 kts 14°
2026-05-05 05:17 22.84086 113.59891 5395 ft 259 kts 41°
2026-05-05 05:17 22.85124 113.61394 5113 ft 239 kts 62°
2026-05-05 05:17 22.85850 113.62927 5036 ft 224 kts 63°
2026-05-05 05:17 22.86545 113.64422 4949 ft 222 kts 66°
2026-05-05 05:18 22.86783 113.65992 4822 ft 204 kts 102°
2026-05-05 05:18 22.86245 113.67319 4562 ft 189 kts 126°
2026-05-05 05:18 22.85545 113.68489 4299 ft 182 kts 125°
2026-05-05 05:18 22.84781 113.69519 4085 ft 171 kts 142°
2026-05-05 05:19 22.83827 113.70226 3889 ft 161 kts 153°
2026-05-05 05:19 22.82851 113.70779 3711 ft 156 kts 155°
2026-05-05 05:19 22.81882 113.71299 3521 ft 156 kts 155°
2026-05-05 05:19 22.80917 113.71816 3334 ft 155 kts 154°
2026-05-05 05:20 22.79953 113.72337 3135 ft 155 kts 154°
2026-05-05 05:20 22.78991 113.72860 2944 ft 155 kts 153°
2026-05-05 05:20 22.78036 113.73379 2751 ft 154 kts 153°
2026-05-05 05:20 22.77075 113.73902 2558 ft 154 kts 152°
2026-05-05 05:21 22.76123 113.74422 2364 ft 153 kts 152°
2026-05-05 05:21 22.75178 113.74937 2169 ft 150 kts 152°
2026-05-05 05:21 22.74246 113.75445 1976 ft 149 kts 151°
2026-05-05 05:21 22.73326 113.75947 1783 ft 148 kts 151°
2026-05-05 05:22 22.72402 113.76451 1582 ft 149 kts 151°
2026-05-05 05:22 22.71479 113.76954 1385 ft 149 kts 150°
2026-05-05 05:22 22.70546 113.77463 1188 ft 148 kts 150°
2026-05-05 05:22 22.69625 113.77965 986 ft 148 kts 150°
2026-05-05 05:23 22.68702 113.78468 803 ft 150 kts 150°
2026-05-05 05:23 22.67767 113.78969 570 ft 151 kts 152°
2026-05-05 05:23 22.66843 113.79469 356 ft 148 kts 150°
2026-05-05 05:23 22.65920 113.79980 203 ft 151 kts 150°
2026-05-05 05:24 22.64987 113.80486 28 ft 145 kts 151°
2026-05-05 05:24 22.64186 113.80955 30 ft 126 kts 152°
2026-05-05 05:24 22.63399 113.81381 421 ft 109 kts 150°
2026-05-05 05:24 22.62654 113.81758 305 ft 130 kts 154°
2026-05-05 05:25 22.61803 113.82209 945 ft 142 kts 148°
2026-05-05 05:25 22.61531 113.83035 1306 ft 144 kts 44°
2026-05-05 05:25 22.62596 113.83052 1161 ft 162 kts 339°
2026-05-05 05:25 22.63569 113.82593 1108 ft 146 kts 339°
2026-05-05 05:26 22.64470 113.82183 936 ft 138 kts 348°
2026-05-05 05:26 22.65326 113.81979 843 ft 127 kts 337°
2026-05-05 05:26 22.66062 113.81433 584 ft 130 kts 321°
2026-05-05 05:26 22.66715 113.80772 323 ft 130 kts 301°
2026-05-05 05:27 22.66549 113.79851 342 ft 136 kts 207°
2026-05-05 05:27 22.65739 113.80052 173 ft 134 kts 137°
2026-05-05 05:27 22.64281 113.80890 28 ft 92 kts 146°
2026-05-05 05:28 22.63771 113.81153 27 ft 74 kts 153°
2026-05-05 05:28 22.63366 113.81374 27 ft 56 kts 154°
2026-05-05 05:28 22.63144 113.81561 27 ft 10 kts 127°
2026-05-05 05:28 22.63124 113.81594 27 ft 2 kts 122°
2026-05-05 05:29 22.63123 113.81597 27 ft 0 kts 122°
2026-05-05 05:29 22.64212 113.80938 28 ft 89 kts 149°